| time (UTC) | temp F | wind direction | speed knots | gust knots | rain 1hr in | rain 24hr in | rain mn in | humidity % | barometer mb |
| 20260831160627 | 74 | 51 | 0.0 | 0.0 | 0.00 | 0.00 | 0.00 | 83 | 1014.2 |
| 20260831160123 | 75 | 93 | 0.0 | 0.0 | 0.00 | 0.00 | 0.00 | 83 | 1013.9 |
| 20260831155617 | 73 | 57 | 0.0 | 0.0 | 0.00 | 0.00 | 0.00 | 86 | 1013.9 |
| 20260831155112 | 73 | 158 | 0.0 | 0.0 | 0.00 | 0.00 | 0.00 | 87 | 1013.9 |
| 20260831154608 | 73 | 157 | 0.0 | 0.0 | 0.00 | 0.00 | 0.00 | 87 | 1014.2 |
| 20260831154108 | 72 | 113 | 0.0 | 0.0 | 0.00 | 0.00 | 0.00 | 88 | 1014.2 |
| 20260831153607 | 72 | 45 | 0.0 | 0.0 | 0.00 | 0.00 | 0.00 | 88 | 1013.9 |
| 20260831153104 | 72 | 77 | 0.0 | 0.0 | 0.00 | 0.00 | 0.00 | 88 | 1014.2 |
| 20260831152559 | 72 | 53 | 0.0 | 0.0 | 0.00 | 0.00 | 0.00 | 89 | 1013.9 |
| 20260831152049 | 71 | 53 | 0.0 | 0.0 | 0.00 | 0.00 | 0.00 | 89 | 1013.9 |
| 20260831151548 | 72 | 64 | 0.0 | 0.0 | 0.00 | 0.00 | 0.00 | 90 | 1013.9 |
| 20260831151048 | 71 | 66 | 0.0 | 0.0 | 0.00 | 0.00 | 0.00 | 90 | 1013.9 |
| 20260831150538 | 71 | 70 | 0.0 | 0.0 | 0.00 | 0.00 | 0.00 | 90 | 1013.9 |
| 20260831150034 | 71 | 72 | 0.0 | 0.0 | 0.00 | 0.00 | 0.00 | 90 | 1013.9 |
| 20260831145528 | 70 | 73 | 0.0 | 0.0 | 0.00 | 0.00 | 0.00 | 91 | 1013.9 |
| 20260831145025 | 70 | 72 | 0.0 | 0.0 | 0.00 | 0.00 | 0.00 | 91 | 1013.9 |
| 20260831144520 | 69 | 73 | 0.0 | 0.0 | 0.00 | 0.00 | 0.00 | 91 | 1013.9 |
| 20260831144015 | 69 | 64 | 0.0 | 0.0 | 0.00 | 0.00 | 0.00 | 92 | 1013.5 |
| 20260831143510 | 68 | 63 | 0.0 | 0.0 | 0.00 | 0.00 | 0.00 | 93 | 1013.5 |
| 20260831143005 | 68 | 45 | 0.0 | 0.0 | 0.00 | 0.00 | 0.00 | 95 | 1013.5 |
| 20260831142502 | 67 | 23 | 0.0 | 0.0 | 0.00 | 0.00 | 0.00 | 96 | 1013.5 |
| 20260831141956 | 67 | 18 | 0.0 | 0.0 | 0.00 | 0.00 | 0.00 | 96 | 1013.2 |
| 20260831141455 | 67 | 17 | 0.0 | 0.0 | 0.00 | 0.00 | 0.00 | 97 | 1013.2 |
| 20260831140950 | 67 | 17 | 0.0 | 0.0 | 0.00 | 0.00 | 0.00 | 97 | 1013.5 |
| 20260831140445 | 66 | 16 | 0.0 | 0.0 | 0.00 | 0.00 | 0.00 | 97 | 1013.5 |
| 20260831135944 | 66 | 7 | 0.0 | 0.0 | 0.00 | 0.00 | 0.00 | 97 | 1013.2 |
| 20260831135443 | 66 | 2 | 0.0 | 0.0 | 0.00 | 0.00 | 0.00 | 98 | 1013.2 |
| 20260831134938 | 65 | 2 | 0.0 | 0.0 | 0.00 | 0.00 | 0.00 | 98 | 1013.2 |
| 20260831134434 | 66 | 1 | 0.0 | 0.0 | 0.00 | 0.00 | 0.00 | 98 | 1012.9 |
| 20260831133929 | 65 | 359 | 0.0 | 0.0 | 0.00 | 0.00 | 0.00 | 98 | 1012.9 |
| 20260831133429 | 66 | 358 | 0.0 | 0.0 | 0.00 | 0.00 | 0.00 | 98 | 1012.9 |
| 20260831132924 | 65 | 357 | 0.0 | 0.0 | 0.00 | 0.00 | 0.00 | 98 | 1012.9 |
| 20260831132419 | 66 | 357 | 0.0 | 0.0 | 0.00 | 0.00 | 0.00 | 98 | 1012.9 |
| 20260831131918 | 66 | 357 | 0.0 | 0.0 | 0.00 | 0.00 | 0.00 | 98 | 1012.9 |
| 20260831131414 | 66 | 356 | 0.0 | 0.0 | 0.00 | 0.00 | 0.00 | 97 | 1012.9 |
| 20260831130909 | 66 | 355 | 0.0 | 0.0 | 0.00 | 0.00 | 0.00 | 97 | 1012.9 |
| 20260831130405 | 66 | 355 | 0.0 | 0.0 | 0.00 | 0.00 | 0.00 | 97 | 1012.9 |
| 20260831125904 | 66 | 355 | 0.0 | 0.0 | 0.00 | 0.00 | 0.00 | 97 | 1012.9 |
| 20260831125359 | 66 | 354 | 0.0 | 0.0 | 0.00 | 0.00 | 0.00 | 97 | 1012.5 |
| 20260831124854 | 66 | 353 | 0.0 | 0.0 | 0.00 | 0.00 | 0.00 | 97 | 1012.9 |
| 20260831124350 | 66 | 350 | 0.0 | 0.0 | 0.00 | 0.00 | 0.00 | 97 | 1012.5 |
| 20260831123845 | 66 | 349 | 0.0 | 0.0 | 0.00 | 0.00 | 0.00 | 97 | 1012.5 |
| 20260831123344 | 66 | 349 | 0.0 | 0.0 | 0.00 | 0.00 | 0.00 | 96 | 1012.5 |
| 20260831122839 | 66 | 349 | 0.0 | 0.0 | 0.00 | 0.00 | 0.00 | 96 | 1012.5 |
| 20260831122334 | 66 | 349 | 0.0 | 0.0 | 0.00 | 0.00 | 0.00 | 96 | 1012.9 |
| 20260831121828 | 66 | 349 | 0.0 | 0.0 | 0.00 | 0.00 | 0.00 | 96 | 1012.5 |
| 20260831121325 | 67 | 349 | 0.0 | 0.0 | 0.00 | 0.00 | 0.00 | 96 | 1012.5 |
| 20260831120820 | 67 | 349 | 0.0 | 0.0 | 0.00 | 0.00 | 0.00 | 96 | 1012.5 |
| 20260831120314 | 67 | 349 | 0.0 | 0.0 | 0.00 | 0.00 | 0.00 | 96 | 1012.5 |
| 20260831115809 | 67 | 348 | 0.0 | 0.0 | 0.00 | 0.00 | 0.00 | 96 | 1012.5 |
| 20260831115306 | 67 | 348 | 0.0 | 0.0 | 0.00 | 0.00 | 0.00 | 95 | 1012.9 |
| 20260831114804 | 67 | 348 | 0.0 | 0.0 | 0.00 | 0.00 | 0.00 | 95 | 1012.5 |
| 20260831114259 | 67 | 348 | 0.0 | 0.0 | 0.00 | 0.00 | 0.00 | 95 | 1012.5 |
| 20260831113754 | 68 | 348 | 0.0 | 0.0 | 0.00 | 0.00 | 0.00 | 95 | 1012.5 |
| 20260831113254 | 68 | 347 | 0.0 | 0.0 | 0.00 | 0.00 | 0.00 | 95 | 1012.5 |
| 20260831112753 | 68 | 347 | 0.0 | 0.0 | 0.00 | 0.00 | 0.00 | 95 | 1012.9 |
| 20260831112243 | 68 | 347 | 0.0 | 0.0 | 0.00 | 0.00 | 0.00 | 94 | 1012.9 |
| 20260831111739 | 68 | 347 | 0.0 | 0.0 | 0.00 | 0.00 | 0.00 | 94 | 1012.5 |
| 20260831111235 | 68 | 347 | 0.0 | 0.0 | 0.00 | 0.00 | 0.00 | 94 | 1012.5 |
| 20260831110730 | 68 | 346 | 0.0 | 0.0 | 0.00 | 0.00 | 0.00 | 94 | 1012.9 |
| 20260831110225 | 68 | 346 | 0.0 | 0.0 | 0.00 | 0.00 | 0.00 | 94 | 1012.5 |
| 20260831105724 | 69 | 345 | 0.0 | 0.0 | 0.00 | 0.00 | 0.00 | 94 | 1012.5 |
| 20260831105220 | 69 | 344 | 0.0 | 0.0 | 0.00 | 0.00 | 0.00 | 93 | 1012.9 |
| 20260831104714 | 69 | 344 | 0.0 | 0.0 | 0.00 | 0.00 | 0.00 | 93 | 1012.9 |
| 20260831104211 | 68 | 343 | 0.0 | 0.0 | 0.00 | 0.00 | 0.00 | 93 | 1012.5 |
| 20260831103711 | 68 | 340 | 0.0 | 0.0 | 0.00 | 0.00 | 0.00 | 92 | 1012.5 |
| 20260831103207 | 68 | 336 | 0.0 | 0.0 | 0.00 | 0.00 | 0.00 | 92 | 1012.9 |
| 20260831102706 | 68 | 332 | 0.0 | 0.0 | 0.00 | 0.00 | 0.00 | 91 | 1012.5 |
| 20260831102201 | 69 | 317 | 0.0 | 0.0 | 0.00 | 0.00 | 0.00 | 91 | 1012.5 |
| 20260831101656 | 69 | 304 | 0.0 | 0.0 | 0.00 | 0.00 | 0.00 | 91 | 1012.9 |
| 20260831101152 | 69 | 289 | 0.0 | 0.0 | 0.00 | 0.00 | 0.00 | 91 | 1012.5 |
| 20260831100648 | 69 | 258 | 0.0 | 0.0 | 0.00 | 0.00 | 0.00 | 91 | 1012.9 |
| 20260831100144 | 69 | 254 | 0.0 | 0.0 | 0.00 | 0.00 | 0.00 | 91 | 1012.5 |
| 20260831095642 | 69 | 254 | 0.0 | 0.0 | 0.00 | 0.00 | 0.00 | 90 | 1012.5 |
| 20260831095137 | 69 | 252 | 0.0 | 0.0 | 0.00 | 0.00 | 0.00 | 90 | 1012.5 |
| 20260831094632 | 69 | 243 | 0.0 | 0.0 | 0.00 | 0.00 | 0.00 | 89 | 1012.5 |
| 20260831094129 | 69 | 254 | 0.0 | 0.0 | 0.00 | 0.00 | 0.00 | 89 | 1012.5 |
| 20260831093624 | 69 | 253 | 0.0 | 0.0 | 0.00 | 0.00 | 0.00 | 89 | 1012.9 |
| 20260831093120 | 69 | 249 | 0.0 | 0.0 | 0.00 | 0.00 | 0.00 | 89 | 1012.5 |
| 20260831092616 | 69 | 246 | 0.0 | 0.0 | 0.00 | 0.00 | 0.00 | 89 | 1012.5 |
| 20260831092111 | 69 | 243 | 0.0 | 0.0 | 0.00 | 0.00 | 0.00 | 89 | 1012.5 |
| 20260831091611 | 69 | 244 | 0.0 | 0.0 | 0.00 | 0.00 | 0.00 | 89 | 1012.5 |
| 20260831091107 | 69 | 249 | 0.0 | 0.0 | 0.00 | 0.00 | 0.00 | 89 | 1012.5 |
| 20260831090602 | 69 | 248 | 0.0 | 0.0 | 0.00 | 0.00 | 0.00 | 89 | 1012.9 |
| 20260831090058 | 69 | 249 | 0.0 | 0.0 | 0.00 | 0.00 | 0.00 | 89 | 1012.2 |
| 20260831085553 | 69 | 239 | 0.0 | 0.0 | 0.00 | 0.00 | 0.00 | 89 | 1012.5 |
| 20260831085048 | 69 | 246 | 0.0 | 0.0 | 0.00 | 0.00 | 0.00 | 89 | 1012.5 |
| 20260831084544 | 69 | 248 | 0.0 | 0.0 | 0.00 | 0.00 | 0.00 | 88 | 1012.9 |
| 20260831084040 | 70 | 239 | 0.0 | 0.0 | 0.00 | 0.00 | 0.00 | 88 | 1012.5 |
| 20260831083536 | 70 | 239 | 0.0 | 0.0 | 0.00 | 0.00 | 0.00 | 88 | 1012.5 |
| 20260831083036 | 70 | 248 | 0.0 | 0.0 | 0.00 | 0.00 | 0.00 | 87 | 1012.9 |
| 20260831082529 | 70 | 239 | 0.0 | 0.0 | 0.00 | 0.00 | 0.00 | 87 | 1012.9 |
| 20260831082025 | 70 | 242 | 0.0 | 0.0 | 0.00 | 0.00 | 0.00 | 86 | 1012.9 |
| 20260831081521 | 71 | 242 | 0.0 | 0.0 | 0.00 | 0.00 | 0.00 | 85 | 1012.9 |
| 20260831081017 | 71 | 252 | 0.0 | 0.0 | 0.00 | 0.00 | 0.00 | 84 | 1012.9 |
| 20260831080516 | 71 | 252 | 0.0 | 0.0 | 0.00 | 0.00 | 0.00 | 83 | 1012.9 |
| 20260831080012 | 71 | 244 | 0.0 | 0.0 | 0.00 | 0.00 | 0.00 | 80 | 1012.9 |
| 20260831075507 | 71 | 236 | 0.0 | 0.0 | 0.00 | 0.00 | 0.00 | 79 | 1012.9 |
| 20260831075002 | 71 | 209 | 0.0 | 0.0 | 0.00 | 0.00 | 0.00 | 77 | 1012.9 |
| 20260831074457 | 71 | 233 | 0.0 | 0.0 | 0.00 | 0.00 | 0.00 | 77 | 1012.9 |
| 20260831073956 | 71 | 212 | 0.0 | 0.0 | 0.00 | 0.00 | 0.00 | 77 | 1012.5 |
| 20260831073456 | 71 | 224 | 0.0 | 0.0 | 0.00 | 0.00 | 0.00 | 79 | 1012.5 |
| 20260831072955 | 71 | 237 | 0.0 | 0.0 | 0.00 | 0.00 | 0.00 | 80 | 1012.5 |
| 20260831072452 | 71 | 221 | 0.0 | 0.0 | 0.00 | 0.00 | 0.00 | 79 | 1012.5 |
| 20260831071948 | 71 | 101 | 0.0 | 0.0 | 0.00 | 0.00 | 0.00 | 79 | 1012.9 |
| 20260831071446 | 71 | 123 | 0.0 | 0.0 | 0.00 | 0.00 | 0.00 | 79 | 1012.9 |
| 20260831070941 | 71 | 141 | 0.0 | 0.0 | 0.00 | 0.00 | 0.00 | 80 | 1012.5 |
| 20260831070435 | 71 | 163 | 0.0 | 0.0 | 0.00 | 0.00 | 0.00 | 81 | 1012.5 |
| 20260831065934 | 71 | 208 | 0.0 | 0.0 | 0.00 | 0.00 | 0.00 | 82 | 1012.5 |
| 20260831065432 | 71 | 213 | 0.0 | 0.0 | 0.00 | 0.00 | 0.00 | 84 | 1012.2 |
| 20260831064927 | 71 | 235 | 0.0 | 0.0 | 0.00 | 0.00 | 0.00 | 85 | 1012.5 |
| 20260831064422 | 72 | 249 | 0.0 | 0.0 | 0.00 | 0.00 | 0.00 | 85 | 1012.5 |
| 20260831063918 | 72 | 229 | 0.0 | 0.0 | 0.00 | 0.00 | 0.00 | 84 | 1012.2 |
| 20260831063413 | 72 | 240 | 0.0 | 0.0 | 0.00 | 0.00 | 0.00 | 83 | 1012.2 |
| 20260831062908 | 72 | 214 | 0.0 | 0.0 | 0.00 | 0.00 | 0.00 | 82 | 1012.5 |
| 20260831062403 | 71 | 227 | 0.0 | 0.0 | 0.00 | 0.00 | 0.00 | 83 | 1012.5 |
| 20260831061901 | 71 | 155 | 0.0 | 0.0 | 0.00 | 0.00 | 0.00 | 84 | 1012.2 |
| 20260831061401 | 71 | 178 | 0.0 | 0.0 | 0.00 | 0.00 | 0.00 | 85 | 1012.5 |
| 20260831060857 | 70 | 233 | 0.0 | 0.0 | 0.00 | 0.00 | 0.00 | 87 | 1012.2 |
| 20260831060352 | 71 | 301 | 0.0 | 0.0 | 0.00 | 0.00 | 0.00 | 90 | 1012.2 |
| 20260831055852 | 71 | 282 | 0.0 | 0.0 | 0.00 | 0.00 | 0.00 | 92 | 1012.5 |
| 20260831055346 | 71 | 308 | 0.0 | 0.0 | 0.00 | 0.00 | 0.00 | 93 | 1012.2 |
| 20260831054842 | 71 | 303 | 0.0 | 0.0 | 0.00 | 0.00 | 0.00 | 94 | 1012.2 |
| 20260831054337 | 71 | 298 | 0.0 | 0.0 | 0.00 | 0.00 | 0.00 | 94 | 1012.5 |
| 20260831053836 | 71 | 281 | 0.0 | 0.0 | 0.00 | 0.00 | 0.00 | 94 | 1012.2 |
| 20260831053335 | 71 | 256 | 0.0 | 0.0 | 0.00 | 0.00 | 0.00 | 94 | 1012.2 |
| 20260831052829 | 71 | 225 | 0.0 | 0.0 | 0.00 | 0.00 | 0.00 | 94 | 1012.5 |
| 20260831052328 | 72 | 178 | 0.0 | 0.0 | 0.00 | 0.00 | 0.00 | 93 | 1012.5 |
| 20260831051827 | 72 | 224 | 0.0 | 0.0 | 0.00 | 0.00 | 0.00 | 93 | 1012.5 |
| 20260831051326 | 72 | 209 | 0.0 | 0.0 | 0.00 | 0.00 | 0.00 | 92 | 1012.2 |
| 20260831050821 | 72 | 154 | 0.0 | 0.0 | 0.00 | 0.00 | 0.00 | 91 | 1012.5 |
| 20260831050320 | 72 | 231 | 0.0 | 0.0 | 0.00 | 0.00 | 0.00 | 91 | 1012.2 |
| 20260831045814 | 72 | 202 | 0.0 | 0.0 | 0.00 | 0.00 | 0.00 | 90 | 1012.2 |
| 20260831045314 | 72 | 234 | 0.0 | 0.0 | 0.00 | 0.00 | 0.00 | 90 | 1012.5 |
| 20260831044809 | 72 | 161 | 0.0 | 0.0 | 0.00 | 0.00 | 0.00 | 90 | 1012.2 |
| 20260831044304 | 72 | 157 | 0.0 | 0.0 | 0.00 | 0.00 | 0.00 | 90 | 1012.2 |
| 20260831043800 | 72 | 233 | 0.0 | 0.0 | 0.00 | 0.00 | 0.00 | 90 | 1012.2 |
| 20260831043254 | 72 | 210 | 0.0 | 0.0 | 0.00 | 0.00 | 0.00 | 89 | 1012.2 |
| 20260831042749 | 72 | 199 | 0.0 | 0.0 | 0.00 | 0.00 | 0.00 | 89 | 1012.2 |
| 20260831042243 | 72 | 240 | 0.0 | 0.0 | 0.00 | 0.00 | 0.00 | 89 | 1012.2 |
| 20260831041738 | 72 | 243 | 0.0 | 0.0 | 0.00 | 0.00 | 0.00 | 89 | 1012.2 |
| 20260831041238 | 72 | 274 | 0.0 | 0.0 | 0.00 | 0.00 | 0.00 | 89 | 1011.8 |
| 20260831040733 | 72 | 242 | 0.0 | 0.0 | 0.00 | 0.00 | 0.00 | 89 | 1012.2 |
| 20260831040232 | 72 | 236 | 0.0 | 0.0 | 0.00 | 0.00 | 0.00 | 89 | 1011.8 |
| 20260831035731 | 72 | 227 | 0.0 | 0.0 | 0.00 | 0.00 | 0.00 | 89 | 1011.8 |
| 20260831035230 | 72 | 251 | 0.0 | 0.0 | 0.00 | 0.00 | 0.00 | 89 | 1011.5 |
| 20260831034729 | 72 | 242 | 0.0 | 0.0 | 0.00 | 0.00 | 0.00 | 89 | 1011.5 |
| 20260831034225 | 72 | 228 | 0.0 | 0.0 | 0.00 | 0.00 | 0.00 | 89 | 1011.8 |
| 20260831033720 | 72 | 218 | 0.0 | 0.0 | 0.00 | 0.00 | 0.00 | 89 | 1011.5 |
| 20260831033220 | 73 | 239 | 0.0 | 0.0 | 0.00 | 0.00 | 0.00 | 88 | 1011.5 |
| 20260831032715 | 73 | 241 | 0.0 | 0.0 | 0.00 | 0.00 | 0.00 | 87 | 1011.5 |
| 20260831032210 | 73 | 226 | 0.0 | 0.0 | 0.00 | 0.00 | 0.00 | 87 | 1011.2 |
| 20260831031711 | 73 | 258 | 3.5 | 6.1 | 0.00 | 0.00 | 0.00 | 86 | 1011.2 |
| 20260831031205 | 73 | 257 | 2.6 | 2.6 | 0.00 | 0.00 | 0.00 | 85 | 1011.2 |
| 20260831030704 | 73 | 195 | 0.0 | 0.9 | 0.00 | 0.00 | 0.00 | 83 | 1010.8 |
| 20260831030203 | 73 | 225 | 4.3 | 5.2 | 0.00 | 0.00 | 0.00 | 82 | 1011.2 |
| 20260831025702 | 73 | 216 | 3.5 | 5.2 | 0.00 | 0.00 | 0.00 | 81 | 1010.8 |
| 20260831025156 | 73 | 179 | 3.5 | 4.3 | 0.00 | 0.00 | 0.00 | 79 | 1011.2 |
| 20260831024653 | 73 | 236 | 0.0 | 0.0 | 0.00 | 0.00 | 0.00 | 78 | 1011.2 |
| 20260831024151 | 73 | 259 | 0.0 | 0.9 | 0.00 | 0.00 | 0.00 | 79 | 1011.2 |
| 20260831023649 | 73 | 283 | 0.0 | 0.0 | 0.00 | 0.00 | 0.00 | 80 | 1011.2 |
| 20260831023143 | 73 | 236 | 4.3 | 5.2 | 0.00 | 0.00 | 0.00 | 79 | 1011.2 |
| 20260831022639 | 73 | 251 | 5.2 | 7.0 | 0.00 | 0.00 | 0.00 | 78 | 1011.2 |
| 20260831022134 | 73 | 235 | 7.0 | 8.7 | 0.00 | 0.00 | 0.00 | 78 | 1011.2 |
| 20260831021633 | 73 | 238 | 3.5 | 4.3 | 0.00 | 0.00 | 0.00 | 79 | 1011.2 |
| 20260831021128 | 73 | 241 | 4.3 | 6.1 | 0.00 | 0.00 | 0.00 | 80 | 1010.8 |
| 20260831020624 | 73 | 216 | 6.1 | 7.8 | 0.00 | 0.00 | 0.00 | 81 | 1011.2 |
| 20260831020118 | 73 | 234 | 0.9 | 4.3 | 0.00 | 0.00 | 0.00 | 83 | 1010.8 |
| 20260831015614 | 73 | 223 | 4.3 | 7.0 | 0.00 | 0.00 | 0.00 | 83 | 1011.2 |
| 20260831015108 | 74 | 261 | 7.0 | 8.7 | 0.00 | 0.00 | 0.00 | 84 | 1011.2 |
| 20260831014603 | 74 | 243 | 5.2 | 6.1 | 0.00 | 0.00 | 0.00 | 84 | 1010.8 |
| 20260831014059 | 74 | 238 | 4.3 | 6.1 | 0.00 | 0.00 | 0.00 | 84 | 1010.8 |
| 20260831013555 | 74 | 258 | 10.4 | 12.2 | 0.00 | 0.00 | 0.00 | 85 | 1011.2 |
| 20260831013054 | 74 | 149 | 4.3 | 5.2 | 0.00 | 0.00 | 0.00 | 86 | 1011.2 |
| 20260831012549 | 75 | 190 | 4.3 | 6.1 | 0.00 | 0.00 | 0.00 | 85 | 1010.8 |
| 20260831012044 | 75 | 227 | 8.7 | 9.6 | 0.00 | 0.00 | 0.00 | 85 | 1010.8 |
| 20260831011543 | 75 | 257 | 7.8 | 11.3 | 0.00 | 0.00 | 0.00 | 86 | 1011.2 |
| 20260831011039 | 75 | 218 | 7.0 | 8.7 | 0.00 | 0.00 | 0.00 | 86 | 1010.8 |
| 20260831010534 | 75 | 268 | 7.0 | 9.6 | 0.00 | 0.00 | 0.00 | 86 | 1010.8 |
| 20260831010030 | 75 | 195 | 6.1 | 8.7 | 0.00 | 0.00 | 0.00 | 86 | 1010.8 |
| 20260831005525 | 76 | 194 | 6.1 | 7.8 | 0.00 | 0.00 | 0.00 | 87 | 1011.2 |
| 20260831005024 | 76 | 253 | 6.1 | 7.8 | 0.00 | 0.00 | 0.00 | 85 | 1011.2 |
| 20260831004521 | 77 | 228 | 5.2 | 6.1 | 0.00 | 0.00 | 0.00 | 84 | 1010.8 |
| 20260831004016 | 76 | 237 | 6.1 | 7.8 | 0.00 | 0.00 | 0.00 | 85 | 1011.2 |
| 20260831003513 | 76 | 260 | 1.7 | 4.3 | 0.00 | 0.00 | 0.00 | 85 | 1010.8 |
| 20260831003008 | 77 | 168 | 6.1 | 7.0 | 0.00 | 0.00 | 0.00 | 85 | 1010.8 |
| 20260831002506 | 77 | 246 | 5.2 | 7.0 | 0.00 | 0.00 | 0.00 | 86 | 1010.8 |
| 20260831002001 | 77 | 219 | 6.1 | 8.7 | 0.00 | 0.00 | 0.00 | 86 | 1010.5 |
| 20260831001456 | 77 | 235 | 6.1 | 7.8 | 0.00 | 0.00 | 0.00 | 86 | 1010.5 |
| 20260831000953 | 78 | 227 | 7.8 | 8.7 | 0.00 | 0.00 | 0.00 | 86 | 1010.8 |
| 20260831000449 | 78 | 219 | 10.4 | 13.9 | 0.00 | 0.00 | 0.00 | 84 | 1010.5 |
| 20260830235947 | 78 | 252 | 7.8 | 9.6 | 0.00 | 0.00 | 0.00 | 84 | 1010.8 |
| 20260830235443 | 79 | 159 | 6.1 | 8.7 | 0.00 | 0.00 | 0.00 | 82 | 1010.5 |
| 20260830234938 | 79 | 230 | 6.1 | 7.8 | 0.00 | 0.00 | 0.00 | 83 | 1010.5 |
| 20260830234433 | 78 | 261 | 12.2 | 13.9 | 0.00 | 0.00 | 0.00 | 83 | 1010.5 |
| 20260830233928 | 80 | 238 | 6.1 | 9.6 | 0.00 | 0.00 | 0.00 | 82 | 1010.8 |
| 20260830233424 | 80 | 235 | 7.0 | 13.0 | 0.00 | 0.00 | 0.00 | 80 | 1010.8 |
| 20260830232919 | 80 | 238 | 7.0 | 8.7 | 0.00 | 0.00 | 0.00 | 81 | 1010.8 |
| 20260830232415 | 80 | 200 | 5.2 | 11.3 | 0.00 | 0.00 | 0.00 | 80 | 1010.8 |
| 20260830231912 | 80 | 210 | 1.7 | 2.6 | 0.00 | 0.00 | 0.00 | 81 | 1010.8 |
| 20260830231406 | 79 | 252 | 10.4 | 12.2 | 0.00 | 0.00 | 0.00 | 82 | 1010.8 |
| 20260830230906 | 79 | 261 | 7.0 | 8.7 | 0.00 | 0.00 | 0.00 | 82 | 1011.2 |
| 20260830230402 | 80 | 237 | 6.1 | 12.2 | 0.00 | 0.00 | 0.00 | 81 | 1010.8 |
| 20260830225900 | 80 | 160 | 5.2 | 7.8 | 0.00 | 0.00 | 0.00 | 80 | 1011.2 |
| 20260830225356 | 80 | 157 | 4.3 | 6.1 | 0.00 | 0.00 | 0.00 | 80 | 1011.2 |
| 20260830224850 | 80 | 251 | 7.8 | 8.7 | 0.00 | 0.00 | 0.00 | 81 | 1011.2 |
| 20260830224349 | 80 | 270 | 7.0 | 8.7 | 0.00 | 0.00 | 0.00 | 80 | 1011.2 |
| 20260830223847 | 80 | 247 | 9.6 | 9.6 | 0.00 | 0.00 | 0.00 | 80 | 1011.2 |
| 20260830223343 | 80 | 204 | 4.3 | 6.1 | 0.00 | 0.00 | 0.00 | 80 | 1011.2 |
| 20260830222842 | 79 | 242 | 9.6 | 13.0 | 0.00 | 0.00 | 0.00 | 81 | 1011.2 |
| 20260830222337 | 81 | 266 | 7.8 | 9.6 | 0.00 | 0.00 | 0.00 | 79 | 1011.5 |
| 20260830221832 | 80 | 276 | 10.4 | 12.2 | 0.00 | 0.00 | 0.00 | 80 | 1011.2 |
| 20260830221329 | 80 | 231 | 7.8 | 9.6 | 0.00 | 0.00 | 0.00 | 80 | 1011.2 |
| 20260830220829 | 80 | 246 | 6.1 | 7.8 | 0.00 | 0.00 | 0.00 | 80 | 1011.5 |
| 20260830220324 | 80 | 222 | 6.1 | 7.8 | 0.00 | 0.00 | 0.00 | 79 | 1011.5 |
| 20260830215822 | 80 | 248 | 9.6 | 9.6 | 0.00 | 0.00 | 0.00 | 80 | 1011.8 |
| 20260830215316 | 80 | 259 | 7.0 | 7.8 | 0.00 | 0.00 | 0.00 | 80 | 1011.8 |
| 20260830214811 | 79 | 248 | 8.7 | 11.3 | 0.00 | 0.00 | 0.00 | 80 | 1011.5 |
| 20260830214301 | 80 | 226 | 9.6 | 12.2 | 0.00 | 0.00 | 0.00 | 80 | 1011.8 |
| 20260830213800 | 80 | 215 | 7.8 | 9.6 | 0.00 | 0.00 | 0.00 | 80 | 1011.8 |
| 20260830213255 | 80 | 253 | 7.8 | 9.6 | 0.00 | 0.00 | 0.00 | 79 | 1012.2 |
| 20260830212751 | 81 | 220 | 7.8 | 7.8 | 0.00 | 0.00 | 0.00 | 78 | 1012.2 |
| 20260830212247 | 82 | 244 | 8.7 | 11.3 | 0.00 | 0.00 | 0.00 | 78 | 1012.2 |
| 20260830211746 | 82 | 254 | 5.2 | 7.0 | 0.00 | 0.00 | 0.00 | 78 | 1012.2 |
| 20260830211245 | 81 | 232 | 8.7 | 11.3 | 0.00 | 0.00 | 0.00 | 78 | 1012.2 |
| 20260830210742 | 81 | 256 | 8.7 | 9.6 | 0.00 | 0.00 | 0.00 | 80 | 1012.2 |
| 20260830210240 | 81 | 258 | 8.7 | 9.6 | 0.00 | 0.00 | 0.00 | 80 | 1012.2 |
| 20260830205738 | 81 | 275 | 4.3 | 7.0 | 0.00 | 0.00 | 0.00 | 80 | 1012.2 |
| 20260830205233 | 82 | 243 | 10.4 | 13.9 | 0.00 | 0.00 | 0.00 | 79 | 1012.2 |
| 20260830204728 | 82 | 207 | 4.3 | 7.8 | 0.00 | 0.00 | 0.00 | 77 | 1012.5 |
| 20260830204227 | 82 | 255 | 6.1 | 7.0 | 0.00 | 0.00 | 0.00 | 75 | 1012.2 |
| 20260830203723 | 83 | 214 | 4.3 | 6.1 | 0.00 | 0.00 | 0.00 | 76 | 1012.5 |
| 20260830203213 | 82 | 242 | 6.1 | 7.8 | 0.00 | 0.00 | 0.00 | 76 | 1012.2 |
| 20260830202711 | 83 | 241 | 7.8 | 9.6 | 0.00 | 0.00 | 0.00 | 76 | 1012.5 |
| 20260830202207 | 83 | 218 | 4.3 | 7.8 | 0.00 | 0.00 | 0.00 | 76 | 1012.5 |
| 20260830201701 | 83 | 274 | 10.4 | 12.2 | 0.00 | 0.00 | 0.00 | 77 | 1012.2 |
| 20260830201156 | 83 | 278 | 7.0 | 8.7 | 0.00 | 0.00 | 0.00 | 75 | 1012.5 |
| 20260830200652 | 83 | 259 | 5.2 | 7.8 | 0.00 | 0.00 | 0.00 | 77 | 1012.2 |
| 20260830200151 | 84 | 261 | 6.1 | 7.8 | 0.00 | 0.00 | 0.00 | 76 | 1012.5 |
| 20260830195647 | 84 | 240 | 4.3 | 7.0 | 0.00 | 0.00 | 0.00 | 76 | 1012.2 |
| 20260830195144 | 84 | 240 | 6.1 | 8.7 | 0.00 | 0.00 | 0.00 | 77 | 1012.5 |
| 20260830194643 | 84 | 240 | 7.8 | 8.7 | 0.00 | 0.00 | 0.00 | 76 | 1012.2 |
| 20260830194143 | 84 | 237 | 6.1 | 7.8 | 0.00 | 0.00 | 0.00 | 76 | 1012.2 |
| 20260830193638 | 84 | 255 | 7.0 | 8.7 | 0.00 | 0.00 | 0.00 | 76 | 1012.2 |
| 20260830193138 | 83 | 255 | 4.3 | 6.1 | 0.00 | 0.00 | 0.00 | 75 | 1012.2 |
| 20260830192634 | 83 | 245 | 4.3 | 5.2 | 0.00 | 0.00 | 0.00 | 77 | 1012.2 |
| 20260830192129 | 83 | 248 | 6.1 | 7.0 | 0.00 | 0.00 | 0.00 | 75 | 1012.2 |
| 20260830191624 | 82 | 260 | 4.3 | 6.1 | 0.00 | 0.00 | 0.00 | 77 | 1012.5 |
| 20260830191120 | 83 | 250 | 3.5 | 4.3 | 0.00 | 0.00 | 0.00 | 76 | 1012.5 |
| 20260830190615 | 82 | 287 | 7.0 | 8.7 | 0.00 | 0.00 | 0.00 | 75 | 1012.5 |
| 20260830190110 | 82 | 257 | 4.3 | 5.2 | 0.00 | 0.00 | 0.00 | 77 | 1012.5 |
| 20260830185608 | 83 | 264 | 6.1 | 6.1 | 0.00 | 0.00 | 0.00 | 76 | 1012.5 |
| 20260830185104 | 83 | 178 | 1.7 | 2.6 | 0.00 | 0.00 | 0.00 | 74 | 1012.9 |
| 20260830184603 | 83 | 250 | 5.2 | 7.0 | 0.00 | 0.00 | 0.00 | 74 | 1012.5 |
| 20260830184058 | 83 | 164 | 3.5 | 5.2 | 0.00 | 0.00 | 0.00 | 74 | 1012.9 |
| 20260830183553 | 82 | 263 | 2.6 | 4.3 | 0.00 | 0.00 | 0.00 | 75 | 1012.9 |
| 20260830183049 | 83 | 233 | 3.5 | 5.2 | 0.00 | 0.00 | 0.00 | 72 | 1012.9 |
| 20260830182544 | 83 | 211 | 3.5 | 4.3 | 0.00 | 0.00 | 0.00 | 74 | 1012.9 |
| 20260830182040 | 83 | 258 | 2.6 | 2.6 | 0.00 | 0.00 | 0.00 | 73 | 1012.5 |
| 20260830181536 | 82 | 197 | 0.9 | 2.6 | 0.00 | 0.00 | 0.00 | 73 | 1012.9 |
| 20260830181036 | 84 | 270 | 4.3 | 6.1 | 0.00 | 0.00 | 0.00 | 70 | 1012.5 |
| 20260830180535 | 83 | 172 | 0.0 | 0.9 | 0.00 | 0.00 | 0.00 | 71 | 1012.9 |
| 20260830180034 | 84 | 143 | 0.0 | 0.0 | 0.00 | 0.00 | 0.00 | 70 | 1012.9 |
| 20260830175533 | 86 | 223 | 0.0 | 0.0 | 0.00 | 0.00 | 0.00 | 66 | 1012.9 |
| 20260830175029 | 84 | 270 | 0.0 | 0.0 | 0.00 | 0.00 | 0.00 | 67 | 1012.9 |
| 20260830174524 | 83 | 178 | 0.0 | 0.0 | 0.00 | 0.00 | 0.00 | 68 | 1012.9 |
| 20260830174019 | 84 | 105 | 0.0 | 0.0 | 0.00 | 0.00 | 0.00 | 67 | 1012.9 |
| 20260830173515 | 83 | 312 | 0.0 | 0.0 | 0.00 | 0.00 | 0.00 | 69 | 1012.9 |
| 20260830173010 | 84 | 273 | 0.0 | 0.0 | 0.00 | 0.00 | 0.00 | 68 | 1012.9 |
| 20260830172507 | 85 | 133 | 0.0 | 0.0 | 0.00 | 0.00 | 0.00 | 64 | 1012.9 |
| 20260830172003 | 86 | 50 | 0.0 | 0.0 | 0.00 | 0.00 | 0.00 | 63 | 1012.9 |
| 20260830171457 | 83 | 348 | 0.0 | 0.0 | 0.00 | 0.00 | 0.00 | 67 | 1012.5 |
| 20260830170952 | 82 | 68 | 0.0 | 0.0 | 0.00 | 0.00 | 0.00 | 70 | 1012.9 |
| 20260830170452 | 83 | 73 | 0.0 | 0.0 | 0.00 | 0.00 | 0.00 | 69 | 1012.9 |
| 20260830165950 | 82 | 50 | 0.0 | 0.0 | 0.00 | 0.00 | 0.00 | 69 | 1012.9 |
| 20260830165446 | 83 | 53 | 0.0 | 0.0 | 0.00 | 0.00 | 0.00 | 69 | 1012.9 |
| 20260830164942 | 82 | 53 | 0.0 | 0.0 | 0.00 | 0.00 | 0.00 | 71 | 1012.9 |
| 20260830164438 | 82 | 74 | 0.0 | 0.0 | 0.00 | 0.00 | 0.00 | 69 | 1012.5 |
| 20260830163934 | 82 | 62 | 0.0 | 0.0 | 0.00 | 0.00 | 0.00 | 71 | 1012.9 |
| 20260830163431 | 81 | 64 | 0.0 | 0.0 | 0.00 | 0.00 | 0.00 | 72 | 1012.5 |
| 20260830162929 | 80 | 19 | 0.0 | 0.0 | 0.00 | 0.00 | 0.00 | 73 | 1012.5 |
| 20260830162426 | 80 | 131 | 0.0 | 0.0 | 0.00 | 0.00 | 0.00 | 74 | 1012.5 |
| 20260830161925 | 80 | 10 | 0.0 | 0.0 | 0.00 | 0.00 | 0.00 | 74 | 1012.9 |
| 20260830161420 | 80 | 27 | 0.0 | 0.0 | 0.00 | 0.00 | 0.00 | 74 | 1012.5 |
| 20260830160914 | 80 | 15 | 0.0 | 0.0 | 0.00 | 0.00 | 0.00 | 74 | 1012.5 |